Radiation Dose at Monitoring Post of Fukushima Daini Nuclear Power Station
Date,Time,MP-1(microSv/h),MP-2(microSv/h),MP-3(microSv/h),MP-4(microSv/h),MP-5(microSv/h),MP-6(microSv/h),MP-7(microSv/h),Wind Direction,Wind Velocity(m/s),Rain
2022/01/01,00:00,0.161,0.148,0.230,0.225,0.227,0.125,0.079,west,3.2,No
2022/01/01,00:10,0.162,0.148,0.230,0.225,0.228,0.124,0.080,west-southwest,9.5,No
2022/01/01,00:20,0.161,0.148,0.230,0.225,0.228,0.125,0.080,west,5.9,No
2022/01/01,00:30,0.161,0.149,0.231,0.226,0.227,0.125,0.080,west,6.7,No
2022/01/01,00:40,0.160,0.148,0.231,0.223,0.227,0.124,0.079,west,6.0,No
2022/01/01,00:50,0.160,0.148,0.230,0.224,0.228,0.125,0.079,west,6.0,No
2022/01/01,01:00,0.161,0.148,0.230,0.225,0.228,0.125,0.081,west,7.8,No
2022/01/01,01:10,0.161,0.148,0.230,0.225,0.227,0.126,0.079,west-northwest,5.9,No
2022/01/01,01:20,0.162,0.147,0.230,0.224,0.228,0.124,0.079,west,8.1,No
2022/01/01,01:30,0.160,0.148,0.229,0.225,0.228,0.126,0.080,west-northwest,5.6,No
2022/01/01,01:40,0.160,0.148,0.230,0.224,0.228,0.125,0.080,west,9.2,No
2022/01/01,01:50,0.160,0.148,0.229,0.225,0.226,0.124,0.080,west,9.2,No
2022/01/01,02:00,0.161,0.147,0.229,0.225,0.227,0.125,0.079,west,10.3,No
2022/01/01,02:10,0.161,0.147,0.230,0.225,0.228,0.124,0.079,west,8.7,No
2022/01/01,02:20,0.161,0.148,0.230,0.224,0.227,0.126,0.079,west-northwest,9.0,No
2022/01/01,02:30,0.160,0.148,0.230,0.224,0.227,0.125,0.080,west,5.8,No
2022/01/01,02:40,0.160,0.148,0.229,0.226,0.227,0.126,0.079,west-northwest,9.3,No
2022/01/01,02:50,0.161,0.148,0.230,0.226,0.227,0.125,0.080,west,10.7,No
2022/01/01,03:00,0.161,0.148,0.231,0.225,0.226,0.126,0.079,west-northwest,11.5,No
2022/01/01,03:10,0.160,0.148,0.230,0.225,0.226,0.125,0.080,west-northwest,12.0,No
2022/01/01,03:20,0.161,0.148,0.230,0.225,0.227,0.126,0.080,west,10.6,No
2022/01/01,03:30,0.160,0.147,0.230,0.224,0.227,0.125,0.079,west,11.1,No
2022/01/01,03:40,0.161,0.148,0.229,0.226,0.226,0.125,0.080,west,12.8,No
2022/01/01,03:50,0.162,0.148,0.229,0.225,0.228,0.125,0.080,west-northwest,10.0,No
2022/01/01,04:00,0.162,0.148,0.230,0.225,0.227,0.125,0.080,west,10.9,No
2022/01/01,04:10,0.161,0.148,0.231,0.225,0.227,0.125,0.080,west,11.7,No
2022/01/01,04:20,0.161,0.147,0.231,0.224,0.228,0.125,0.080,west,7.9,No
2022/01/01,04:30,0.161,0.148,0.230,0.225,0.227,0.125,0.080,west,7.4,No
2022/01/01,04:40,0.161,0.148,0.230,0.224,0.228,0.125,0.080,west-northwest,7.0,No
2022/01/01,04:50,0.162,0.148,0.229,0.226,0.228,0.125,0.080,west,9.2,No
2022/01/01,05:00,0.161,0.148,0.231,0.225,0.227,0.126,0.080,west-northwest,6.2,No
2022/01/01,05:10,0.161,0.148,0.231,0.224,0.228,0.125,0.079,west,8.5,No
2022/01/01,05:20,0.161,0.147,0.230,0.226,0.227,0.124,0.080,west,9.2,No
2022/01/01,05:30,0.161,0.148,0.229,0.226,0.227,0.125,0.080,west-northwest,4.7,No
2022/01/01,05:40,0.162,0.149,0.230,0.225,0.228,0.124,0.079,west,7.9,No
2022/01/01,05:50,0.162,0.148,0.231,0.226,0.228,0.125,0.079,west-northwest,7.3,No
2022/01/01,06:00,0.162,0.148,0.230,0.225,0.228,0.125,0.079,west-northwest,7.3,No
2022/01/01,06:10,0.162,0.148,0.230,0.225,0.228,0.125,0.079,west,7.5,No
2022/01/01,06:20,0.162,0.148,0.231,0.225,0.227,0.125,0.079,west,6.7,No
2022/01/01,06:30,0.161,0.148,0.231,0.226,0.228,0.124,0.079,west,7.6,No
2022/01/01,06:40,0.161,0.148,0.230,0.225,0.227,0.126,0.079,west,7.6,No
2022/01/01,06:50,0.162,0.148,0.231,0.226,0.227,0.125,0.079,west-northwest,7.5,No
2022/01/01,07:00,0.161,0.149,0.231,0.225,0.226,0.125,0.079,west-northwest,10.4,No
2022/01/01,07:10,0.161,0.148,0.230,0.226,0.227,0.124,0.080,west-northwest,9.2,No
2022/01/01,07:20,0.161,0.147,0.229,0.225,0.227,0.125,0.079,west-northwest,11.2,No
2022/01/01,07:30,0.159,0.147,0.231,0.225,0.228,0.125,0.079,west,11.4,No
2022/01/01,07:40,0.160,0.147,0.230,0.226,0.227,0.124,0.080,west,11.8,No
2022/01/01,07:50,0.162,0.148,0.231,0.225,0.227,0.125,0.079,west-northwest,11.5,No
2022/01/01,08:00,0.161,0.148,0.230,0.224,0.227,0.126,0.080,west,11.7,No
2022/01/01,08:10,0.161,0.148,0.230,0.225,0.228,0.125,0.079,west-northwest,10.1,No
2022/01/01,08:20,0.159,0.149,0.230,0.224,0.228,0.125,0.079,west-northwest,9.6,No
2022/01/01,08:30,0.161,0.148,0.230,0.224,0.227,0.125,0.079,west-northwest,8.7,No
2022/01/01,08:40,0.161,0.148,0.230,0.224,0.227,0.124,0.079,west-northwest,10.6,No
2022/01/01,08:50,0.161,0.148,0.231,0.224,0.227,0.124,0.080,west-northwest,11.1,No
2022/01/01,09:00,0.161,0.148,0.230,0.225,0.227,0.124,0.079,northwest,8.1,No
2022/01/01,09:10,0.160,0.147,0.230,0.224,0.227,0.124,0.079,west-northwest,9.2,No
2022/01/01,09:20,0.161,0.148,0.230,0.223,0.226,0.124,0.080,west-northwest,12.6,No
2022/01/01,09:30,0.161,0.148,0.230,0.224,0.227,0.125,0.080,west-northwest,9.8,No
2022/01/01,09:40,0.161,0.148,0.231,0.225,0.229,0.125,0.079,northwest,9.2,No
2022/01/01,09:50,0.161,0.148,0.231,0.223,0.227,0.125,0.080,west,12.3,No
2022/01/01,10:00,0.161,0.147,0.231,0.225,0.226,0.125,0.080,west-northwest,11.7,No
2022/01/01,10:10,0.161,0.148,0.230,0.224,0.228,0.125,0.080,west-northwest,10.0,No
2022/01/01,10:20,0.161,0.147,0.230,0.224,0.228,0.125,0.080,northwest,10.0,No
2022/01/01,10:30,0.161,0.148,0.230,0.224,0.227,0.125,0.080,west-northwest,9.3,No
2022/01/01,10:40,0.161,0.148,0.231,0.225,0.227,0.124,0.080,west-northwest,9.2,No
2022/01/01,10:50,0.161,0.148,0.230,0.224,0.228,0.125,0.080,west-northwest,10.9,No
2022/01/01,11:00,0.162,0.148,0.230,0.224,0.227,0.125,0.079,west-northwest,12.3,No
2022/01/01,11:10,0.161,0.148,0.230,0.225,0.228,0.124,0.080,west-northwest,9.2,No
2022/01/01,11:20,0.162,0.148,0.230,0.224,0.228,0.125,0.079,northwest,7.8,No
2022/01/01,11:30,0.161,0.147,0.230,0.226,0.227,0.124,0.080,west-northwest,8.9,No
2022/01/01,11:40,0.161,0.148,0.230,0.225,0.229,0.124,0.080,west-northwest,11.7,No
2022/01/01,11:50,0.160,0.148,0.229,0.224,0.228,0.124,0.079,west-northwest,10.9,No
2022/01/01,12:00,0.161,0.147,0.230,0.224,0.227,0.124,0.079,west-northwest,10.0,No
2022/01/01,12:10,0.161,0.148,0.230,0.224,0.228,0.125,0.080,west-northwest,7.0,No
2022/01/01,12:20,0.160,0.148,0.230,0.226,0.228,0.125,0.080,northwest,8.1,No
2022/01/01,12:30,0.160,0.148,0.230,0.224,0.227,0.125,0.080,west-northwest,11.4,No
2022/01/01,12:40,0.161,0.147,0.228,0.225,0.228,0.125,0.079,west-northwest,10.0,No
2022/01/01,12:50,0.161,0.147,0.230,0.225,0.228,0.124,0.079,west-northwest,6.8,No
2022/01/01,13:00,0.161,0.148,0.230,0.226,0.227,0.126,0.079,west-northwest,7.7,No
2022/01/01,13:10,0.161,0.149,0.229,0.225,0.228,0.125,0.079,west-northwest,7.0,No
2022/01/01,13:20,0.160,0.148,0.231,0.225,0.229,0.125,0.079,west-northwest,8.8,No
2022/01/01,13:30,0.161,0.148,0.231,0.226,0.228,0.125,0.079,northwest,8.7,No
2022/01/01,13:40,0.160,0.149,0.230,0.226,0.229,0.126,0.079,west-northwest,10.9,No
2022/01/01,13:50,0.161,0.148,0.230,0.225,0.228,0.125,0.079,west-northwest,10.6,No
2022/01/01,14:00,0.162,0.148,0.231,0.225,0.227,0.126,0.080,northwest,7.0,No
2022/01/01,14:10,0.161,0.147,0.231,0.226,0.229,0.125,0.080,west-northwest,7.8,No
2022/01/01,14:20,0.161,0.148,0.230,0.225,0.228,0.126,0.079,west-northwest,7.0,No
2022/01/01,14:30,0.161,0.148,0.230,0.225,0.227,0.124,0.080,west-northwest,7.6,No
2022/01/01,14:40,0.161,0.148,0.230,0.226,0.228,0.125,0.080,west-northwest,9.3,No
2022/01/01,14:50,0.162,0.149,0.229,0.225,0.229,0.125,0.080,west-northwest,10.0,No
2022/01/01,15:00,0.162,0.148,0.230,0.225,0.229,0.125,0.080,west-northwest,7.1,No
2022/01/01,15:10,0.161,0.148,0.230,0.225,0.229,0.125,0.081,west-northwest,9.2,No
2022/01/01,15:20,0.161,0.148,0.231,0.225,0.228,0.125,0.080,west-northwest,7.4,No
2022/01/01,15:30,0.160,0.148,0.231,0.226,0.227,0.125,0.080,northwest,7.3,No
2022/01/01,15:40,0.161,0.147,0.231,0.226,0.228,0.125,0.080,northwest,8.5,No
2022/01/01,15:50,0.162,0.147,0.232,0.226,0.228,0.125,0.080,northwest,7.9,No
2022/01/01,16:00,0.161,0.149,0.231,0.225,0.227,0.125,0.080,west-northwest,8.1,No
2022/01/01,16:10,0.161,0.148,0.230,0.225,0.227,0.125,0.080,west-northwest,7.3,No
2022/01/01,16:20,0.161,0.149,0.230,0.226,0.228,0.126,0.080,west-northwest,9.8,No
2022/01/01,16:30,0.161,0.148,0.230,0.227,0.228,0.126,0.079,west-northwest,9.2,No
2022/01/01,16:40,0.160,0.149,0.230,0.225,0.228,0.125,0.081,west-northwest,6.7,No
2022/01/01,16:50,0.161,0.148,0.230,0.225,0.227,0.125,0.080,west-northwest,6.0,No
2022/01/01,17:00,0.161,0.148,0.231,0.225,0.227,0.125,0.080,northwest,5.8,No
2022/01/01,17:10,0.161,0.148,0.231,0.225,0.227,0.125,0.080,west-northwest,4.6,No
2022/01/01,17:20,0.161,0.148,0.231,0.226,0.227,0.126,0.080,northwest,4.8,No
2022/01/01,17:30,0.161,0.149,0.231,0.225,0.227,0.125,0.080,northwest,7.3,No
2022/01/01,17:40,0.161,0.149,0.231,0.225,0.227,0.125,0.079,northwest,5.3,No
2022/01/01,17:50,0.161,0.149,0.230,0.227,0.227,0.125,0.080,northwest,4.6,No
2022/01/01,18:00,0.161,0.148,0.230,0.225,0.226,0.126,0.079,northwest,6.4,No
2022/01/01,18:10,0.161,0.149,0.230,0.225,0.228,0.125,0.080,west-northwest,6.3,No
2022/01/01,18:20,0.162,0.148,0.231,0.225,0.228,0.125,0.079,west-northwest,5.9,No
2022/01/01,18:30,0.162,0.147,0.231,0.225,0.226,0.126,0.080,west-northwest,7.4,No
2022/01/01,18:40,0.162,0.147,0.230,0.226,0.227,0.125,0.080,west-northwest,7.4,No
2022/01/01,18:50,0.162,0.147,0.231,0.225,0.228,0.126,0.081,west-northwest,7.3,No
2022/01/01,19:00,0.161,0.148,0.231,0.227,0.228,0.124,0.080,west-northwest,7.9,No
2022/01/01,19:10,0.161,0.148,0.230,0.226,0.228,0.125,0.080,northwest,7.7,No
2022/01/01,19:20,0.161,0.149,0.231,0.224,0.227,0.125,0.080,northwest,7.8,No
2022/01/01,19:30,0.160,0.148,0.229,0.226,0.228,0.125,0.080,west-northwest,6.3,No
2022/01/01,19:40,0.161,0.148,0.229,0.225,0.227,0.125,0.079,west-northwest,6.0,No
2022/01/01,19:50,0.161,0.148,0.230,0.226,0.228,0.125,0.080,northwest,5.8,No
2022/01/01,20:00,0.161,0.148,0.231,0.224,0.227,0.125,0.080,northwest,6.4,No
2022/01/01,20:10,0.162,0.148,0.230,0.225,0.228,0.125,0.080,northwest,5.3,No
2022/01/01,20:20,0.161,0.147,0.229,0.225,0.228,0.125,0.079,northwest,5.4,No
2022/01/01,20:30,0.161,0.148,0.231,0.226,0.228,0.125,0.080,northwest,5.2,No
2022/01/01,20:40,0.161,0.148,0.230,0.225,0.227,0.125,0.080,northwest,4.7,No
2022/01/01,20:50,0.160,0.148,0.230,0.226,0.228,0.125,0.079,northwest,4.5,No
2022/01/01,21:00,0.160,0.148,0.230,0.226,0.227,0.124,0.079,west-northwest,4.2,No
2022/01/01,21:10,0.161,0.148,0.231,0.226,0.227,0.126,0.080,west-southwest,0.6,No
2022/01/01,21:20,0.161,0.148,0.230,0.226,0.227,0.125,0.080,east,2.3,No
2022/01/01,21:30,0.161,0.149,0.229,0.225,0.227,0.125,0.080,east,1.9,No
2022/01/01,21:40,0.161,0.147,0.231,0.226,0.227,0.125,0.080,northeast,2.1,No
2022/01/01,21:50,0.160,0.148,0.231,0.225,0.227,0.125,0.079,north-northeast,0.6,No
2022/01/01,22:00,0.161,0.148,0.230,0.226,0.227,0.125,0.080,north-northwest,2.0,No
2022/01/01,22:10,0.161,0.148,0.230,0.225,0.228,0.125,0.080,northwest,2.5,No
2022/01/01,22:20,0.161,0.147,0.230,0.226,0.227,0.125,0.079,west,3.2,No
2022/01/01,22:30,0.162,0.147,0.229,0.225,0.228,0.125,0.080,west,3.8,No
2022/01/01,22:40,0.161,0.148,0.230,0.225,0.227,0.126,0.080,west-northwest,4.9,No
2022/01/01,22:50,0.161,0.148,0.229,0.225,0.227,0.124,0.080,northwest,5.4,No
2022/01/01,23:00,0.161,0.148,0.230,0.225,0.227,0.125,0.079,northwest,7.0,No
2022/01/01,23:10,0.161,0.148,0.230,0.225,0.227,0.125,0.080,west-northwest,5.4,No
2022/01/01,23:20,0.160,0.149,0.230,0.225,0.229,0.125,0.079,west-northwest,6.5,No
2022/01/01,23:30,0.162,0.148,0.230,0.226,0.227,0.124,0.080,northwest,5.3,No
2022/01/01,23:40,0.162,0.148,0.231,0.225,0.226,0.125,0.079,northwest,4.6,No
2022/01/01,23:50,0.161,0.148,0.230,0.225,0.228,0.124,0.079,northwest,5.4,No
